Location: Boussac
(44.2782°N, 2.3665°E)
Time: 12:28:36
(UTC+00:00)

DELTA 2 R/B (1) - Pass Details

Date: 15 May 2026
Orbit: 787 x 800 km, 39.6° (Epoch: 7 June)

Event Time Altitude Azimuth Distance (km) Brightness Sun altitude
Rises 20:42:27 0° 265° (W) 3,290 7.4 -14.0°
Reaches altitude 10° 20:45:00 10° 261° (W) 2,358 6.5 -14.3°
Maximum altitude 20:50:22 52° 186° (S) 980 3.8 -15.0°
Enters shadow 20:53:41 23° 120° (ESE) 1,646 4.6 -15.4°
